TimePDT,TemperatureF,Dew PointF,Humidity,Sea Level PressureIn,VisibilityMPH,Wind Direction,Wind SpeedMPH,Gust SpeedMPH,PrecipitationIn,Events,Conditions,WindDirDegrees,DateUTC
12:15 AM,69.8,46.4,43,29.88,10.0,SSE,13.8,-,N/A,,Clear,150,2012-10-04 07:15:00
12:35 AM,69.8,46.4,43,29.89,10.0,SSE,13.8,-,N/A,,Clear,160,2012-10-04 07:35:00
12:55 AM,68.0,48.2,49,29.90,10.0,SSE,13.8,-,N/A,,Clear,150,2012-10-04 07:55:00
1:15 AM,68.0,48.2,49,29.90,10.0,SE,12.7,-,N/A,,Clear,140,2012-10-04 08:15:00
1:35 AM,68.0,48.2,49,29.91,10.0,SE,10.4,-,N/A,,Clear,140,2012-10-04 08:35:00
1:55 AM,68.0,48.2,49,29.91,10.0,SE,11.5,-,N/A,,Clear,140,2012-10-04 08:55:00
2:15 AM,68.0,46.4,46,29.92,10.0,SE,11.5,-,N/A,,Clear,140,2012-10-04 09:15:00
2:35 AM,66.2,46.4,49,29.92,10.0,SE,11.5,-,N/A,,Clear,140,2012-10-04 09:35:00
2:55 AM,66.2,48.2,52,29.92,10.0,SE,13.8,-,N/A,,Clear,140,2012-10-04 09:55:00
3:15 AM,64.4,50.0,59,29.93,10.0,SE,13.8,-,N/A,,Clear,140,2012-10-04 10:15:00
3:35 AM,64.4,50.0,59,29.93,10.0,SE,13.8,-,N/A,,Clear,140,2012-10-04 10:35:00
3:55 AM,62.6,50.0,63,29.93,10.0,SE,11.5,-,N/A,,Clear,130,2012-10-04 10:55:00
4:15 AM,62.6,50.0,63,29.93,10.0,SE,15.0,-,N/A,,Clear,140,2012-10-04 11:15:00
4:35 AM,62.6,50.0,63,29.94,10.0,SE,15.0,20.7,N/A,,Clear,140,2012-10-04 11:35:00
4:55 AM,60.8,50.0,68,29.94,10.0,SE,16.1,-,N/A,,Clear,130,2012-10-04 11:55:00
5:15 AM,60.8,51.8,72,29.95,10.0,SE,13.8,19.6,N/A,,Clear,140,2012-10-04 12:15:00
5:35 AM,60.8,50.0,68,29.96,10.0,SE,13.8,19.6,N/A,,Clear,140,2012-10-04 12:35:00
5:55 AM,60.8,50.0,68,29.96,10.0,SE,12.7,18.4,N/A,,Clear,140,2012-10-04 12:55:00
6:15 AM,60.8,50.0,68,29.97,10.0,SE,13.8,18.4,N/A,,Clear,140,2012-10-04 13:15:00
6:35 AM,60.8,50.0,68,29.98,10.0,SE,15.0,-,N/A,,Clear,140,2012-10-04 13:35:00
6:55 AM,59.0,51.8,77,29.98,10.0,SE,13.8,18.4,N/A,,Clear,140,2012-10-04 13:55:00
7:15 AM,59.0,51.8,77,29.99,10.0,SE,13.8,-,N/A,,Clear,140,2012-10-04 14:15:00
7:35 AM,59.0,51.8,77,29.99,10.0,SSE,12.7,-,N/A,,Clear,150,2012-10-04 14:35:00
7:55 AM,59.0,51.8,77,30.00,10.0,SSE,16.1,-,N/A,,Clear,150,2012-10-04 14:55:00
8:15 AM,60.8,51.8,72,30.01,10.0,SSE,16.1,23.0,N/A,,Clear,150,2012-10-04 15:15:00
8:35 AM,60.8,51.8,72,30.01,10.0,SE,16.1,21.9,N/A,,Clear,130,2012-10-04 15:35:00
8:55 AM,60.8,51.8,72,30.02,10.0,SE,16.1,20.7,N/A,,Clear,140,2012-10-04 15:55:00
9:35 AM,62.6,51.8,68,30.03,10.0,SSE,17.3,-,N/A,,Clear,150,2012-10-04 16:35:00
9:55 AM,64.4,51.8,64,30.03,10.0,SSE,16.1,-,N/A,,Clear,150,2012-10-04 16:55:00
10:15 AM,66.2,51.8,60,30.04,10.0,SE,15.0,-,N/A,,Clear,140,2012-10-04 17:15:00
10:35 AM,68.0,51.8,56,30.05,10.0,SSE,13.8,-,N/A,,Clear,150,2012-10-04 17:35:00
10:55 AM,69.8,50.0,49,30.05,10.0,SSE,13.8,-,N/A,,Clear,160,2012-10-04 17:55:00
11:15 AM,69.8,50.0,49,30.05,10.0,South,12.7,-,N/A,,Clear,170,2012-10-04 18:15:00
11:35 AM,71.6,50.0,46,30.06,10.0,SSE,13.8,-,N/A,,Clear,150,2012-10-04 18:35:00
11:55 AM,73.4,50.0,44,30.06,10.0,SSE,15.0,-,N/A,,Clear,160,2012-10-04 18:55:00
12:15 PM,75.2,50.0,41,-9999,10.0,SSE,12.7,-,N/A,,Clear,150,2012-10-04 19:15:00
12:35 PM,75.2,50.0,41,30.05,10.0,SSE,13.8,-,N/A,,Clear,160,2012-10-04 19:35:00
12:55 PM,75.2,50.0,41,30.05,10.0,SE,9.2,-,N/A,,Clear,140,2012-10-04 19:55:00
1:15 PM,75.2,50.0,41,30.04,10.0,SE,10.4,-,N/A,,Clear,140,2012-10-04 20:15:00
1:35 PM,77.0,48.2,36,30.03,10.0,SSE,10.4,-,N/A,,Clear,150,2012-10-04 20:35:00
1:55 PM,77.0,48.2,36,30.03,10.0,South,9.2,17.3,N/A,,Clear,180,2012-10-04 20:55:00
2:15 PM,78.8,46.4,32,30.02,10.0,South,10.4,-,N/A,,Clear,180,2012-10-04 21:15:00
2:35 PM,78.8,46.4,32,30.02,10.0,SSE,10.4,18.4,N/A,,Clear,160,2012-10-04 21:35:00
2:55 PM,78.8,46.4,32,30.01,10.0,SSE,9.2,-,N/A,,Clear,160,2012-10-04 21:55:00
3:15 PM,78.8,46.4,32,30.01,10.0,SSE,9.2,-,N/A,,Clear,160,2012-10-04 22:15:00
3:35 PM,78.8,46.4,32,30.01,10.0,SSE,11.5,-,N/A,,Clear,150,2012-10-04 22:35:00
3:55 PM,78.8,46.4,32,30.00,10.0,SSE,10.4,-,N/A,,Clear,150,2012-10-04 22:55:00
4:15 PM,78.8,46.4,32,30.00,10.0,SSW,11.5,-,N/A,,Clear,200,2012-10-04 23:15:00
4:35 PM,78.8,46.4,32,30.00,10.0,SSE,8.1,-,N/A,,Clear,160,2012-10-04 23:35:00
4:55 PM,78.8,46.4,32,29.99,10.0,South,9.2,-,N/A,,Clear,170,2012-10-04 23:55:00
5:15 PM,78.8,46.4,32,29.99,10.0,SSE,10.4,-,N/A,,Clear,160,2012-10-05 00:15:00
5:35 PM,78.8,46.4,32,29.99,10.0,South,8.1,-,N/A,,Clear,170,2012-10-05 00:35:00
6:15 PM,75.2,46.4,36,29.99,10.0,SSE,10.4,-,N/A,,Clear,160,2012-10-05 01:15:00
6:35 PM,73.4,48.2,41,29.99,10.0,SSE,10.4,-,N/A,,Clear,160,2012-10-05 01:35:00
6:55 PM,71.6,50.0,46,29.99,10.0,SSE,9.2,-,N/A,,Clear,160,2012-10-05 01:55:00
7:15 PM,71.6,50.0,46,30.00,10.0,SSE,8.1,-,N/A,,Clear,160,2012-10-05 02:15:00
7:35 PM,69.8,51.8,53,30.01,10.0,SSE,8.1,-,N/A,,Clear,160,2012-10-05 02:35:00
8:15 PM,68.0,51.8,56,30.01,10.0,SSE,8.1,-,N/A,,Clear,150,2012-10-05 03:15:00
8:35 PM,68.0,51.8,56,30.01,10.0,SE,9.2,-,N/A,,Clear,140,2012-10-05 03:35:00
8:55 PM,68.0,51.8,56,30.02,10.0,SE,11.5,-,N/A,,Clear,140,2012-10-05 03:55:00
9:15 PM,66.2,51.8,60,30.02,10.0,SSE,12.7,-,N/A,,Clear,150,2012-10-05 04:15:00
9:35 PM,64.4,51.8,64,30.03,10.0,SE,10.4,17.3,N/A,,Clear,140,2012-10-05 04:35:00
9:55 PM,64.4,50.0,59,30.03,10.0,SE,12.7,-,N/A,,Clear,140,2012-10-05 04:55:00
10:15 PM,62.6,50.0,63,30.03,10.0,SE,12.7,17.3,N/A,,Clear,140,2012-10-05 05:15:00
10:35 PM,62.6,50.0,63,30.04,10.0,SE,11.5,-,N/A,,Clear,140,2012-10-05 05:35:00
10:55 PM,60.8,50.0,68,30.05,10.0,SE,11.5,-,N/A,,Clear,140,2012-10-05 05:55:00
11:15 PM,60.8,50.0,68,30.05,10.0,SE,9.2,-,N/A,,Clear,130,2012-10-05 06:15:00
11:35 PM,60.8,50.0,68,30.05,10.0,SE,11.5,-,N/A,,Clear,130,2012-10-05 06:35:00
11:55 PM,60.8,50.0,68,30.05,10.0,SE,10.4,-,N/A,,Clear,140,2012-10-05 06:55:00